User: anonymous   Login
Location: Mt. Cuba Astronomical Observatory
(39.8100°N, 75.6300°W)
Time: 19:26:09
(UTC-04:00)
Language:

Cosmos 2058 - Orbit

View from above orbital plane
View from above orbital plane
View from above satellite
View from above satellite

Ground track
Ground track

The orbit data is extracted from the following two-line orbital elements,

1 20465U 90010A   16145.35933843  .00000585  00000-0  48156-4 0  9998
2 20465  82.4905 261.6004 0016327 158.9790 201.2107 14.97190640427157
Epoch (UTC): 24 May 2016 08:37:26
Eccentricity: 0.0016327
inclination: 82.4905°
perigee height: 564 km
apogee height: 587 km
right ascension of ascending node: 261.6004°
argument of perigee: 158.9790°
revolutions per day: 14.97190640
mean anomaly at epoch: 201.2107°
orbit number at epoch: 42715

The dashed part of the orbit path shows where the satellite is in the earth's shadow,  

DLR